TimeCST,TemperatureF,Dew PointF,Humidity,Sea Level PressureIn,VisibilityMPH,Wind Direction,Wind SpeedMPH,Gust SpeedMPH,PrecipitationIn,Events,Conditions,WindDirDegrees,DateUTC
12:15 AM,21.2,19.4,93,29.75,10.0,SW,17.3,-,0.00,,Clear,230,2013-01-07 06:15:00
12:35 AM,21.2,19.4,93,29.75,10.0,WSW,16.1,-,0.00,,Clear,240,2013-01-07 06:35:00
12:55 AM,21.2,19.4,93,29.75,10.0,WSW,17.3,-,0.00,,Clear,240,2013-01-07 06:55:00
1:15 AM,21.2,19.4,93,29.75,10.0,SW,16.1,-,0.00,,Clear,230,2013-01-07 07:15:00
1:35 AM,21.2,17.6,86,29.75,10.0,SW,15.0,-,0.00,,Clear,230,2013-01-07 07:35:00
1:55 AM,21.2,17.6,86,29.76,10.0,SW,11.5,-,0.00,,Clear,220,2013-01-07 07:55:00
2:35 AM,21.2,17.6,86,29.77,10.0,SW,15.0,-,0.00,,Clear,220,2013-01-07 08:35:00
2:55 AM,21.2,17.6,86,29.77,10.0,SW,18.4,-,0.00,,Clear,220,2013-01-07 08:55:00
3:15 AM,21.2,17.6,86,29.77,10.0,SW,17.3,-,0.00,,Partly Cloudy,220,2013-01-07 09:15:00
3:35 AM,23.0,19.4,86,29.77,10.0,SW,17.3,-,0.00,,Clear,220,2013-01-07 09:35:00
3:55 AM,23.0,19.4,86,29.77,10.0,SSW,15.0,-,0.00,,Clear,210,2013-01-07 09:55:00
4:15 AM,24.8,21.2,86,29.77,10.0,SSW,13.8,-,0.00,,Clear,210,2013-01-07 10:15:00
4:35 AM,26.6,21.2,80,29.77,10.0,SW,18.4,-,0.00,,Clear,220,2013-01-07 10:35:00
4:55 AM,26.6,21.2,80,29.77,10.0,SW,13.8,-,0.00,,Clear,230,2013-01-07 10:55:00
5:15 AM,26.6,21.2,80,29.77,10.0,SW,13.8,-,0.00,,Partly Cloudy,220,2013-01-07 11:15:00
5:35 AM,26.6,21.2,80,29.77,10.0,SW,16.1,-,0.00,,Clear,220,2013-01-07 11:35:00
5:55 AM,26.6,21.2,80,29.78,10.0,SW,11.5,-,0.00,,Clear,230,2013-01-07 11:55:00
6:15 AM,26.6,21.2,80,29.79,10.0,WSW,12.7,-,0.00,,Clear,240,2013-01-07 12:15:00
6:35 AM,26.6,21.2,80,29.79,10.0,WSW,15.0,-,0.00,,Clear,240,2013-01-07 12:35:00
6:55 AM,24.8,21.2,86,29.80,10.0,WSW,13.8,-,0.00,,Clear,240,2013-01-07 12:55:00
7:15 AM,24.8,19.4,80,29.81,10.0,West,12.7,-,0.00,,Clear,260,2013-01-07 13:15:00
7:35 AM,26.6,19.4,74,29.81,10.0,WSW,15.0,-,0.00,,Clear,250,2013-01-07 13:35:00
7:55 AM,28.4,21.2,74,29.82,10.0,West,12.7,-,0.00,,Clear,270,2013-01-07 13:55:00
8:35 AM,30.2,21.2,69,29.83,10.0,West,12.7,-,0.00,,Clear,270,2013-01-07 14:35:00
8:55 AM,28.4,21.2,74,29.84,10.0,West,11.5,-,0.00,,Clear,260,2013-01-07 14:55:00
9:15 AM,28.4,21.2,74,29.84,10.0,West,13.8,-,0.00,,Clear,260,2013-01-07 15:15:00
9:35 AM,28.4,21.2,74,29.85,10.0,WSW,12.7,-,0.00,,Clear,250,2013-01-07 15:35:00
9:55 AM,28.4,21.2,74,29.86,10.0,SW,10.4,-,0.00,,Clear,230,2013-01-07 15:55:00
10:15 AM,28.4,21.2,74,29.87,10.0,SW,10.4,-,0.00,,Clear,230,2013-01-07 16:15:00
10:35 AM,30.2,21.2,69,29.87,10.0,SW,11.5,-,0.00,,Clear,230,2013-01-07 16:35:00
10:55 AM,32.0,23.0,69,29.87,10.0,SW,12.7,-,0.00,,Clear,230,2013-01-07 16:55:00
11:35 AM,32.0,24.8,75,29.86,10.0,WSW,13.8,-,0.00,,Clear,240,2013-01-07 17:35:00
11:55 AM,32.0,24.8,75,29.85,10.0,WSW,12.7,-,0.00,,Clear,250,2013-01-07 17:55:00
12:35 PM,33.8,26.6,75,29.84,10.0,West,9.2,-,0.00,,Clear,260,2013-01-07 18:35:00
1:15 PM,35.6,26.6,70,29.83,10.0,West,16.1,-,0.00,,Clear,260,2013-01-07 19:15:00
1:35 PM,35.6,26.6,70,29.83,10.0,West,16.1,-,0.00,,Clear,260,2013-01-07 19:35:00
1:55 PM,35.6,26.6,70,29.84,10.0,West,17.3,-,0.00,,Clear,260,2013-01-07 19:55:00
2:15 PM,35.6,26.6,70,29.85,10.0,West,17.3,-,0.00,,Clear,270,2013-01-07 20:15:00
2:35 PM,35.6,26.6,70,29.85,10.0,West,15.0,-,0.00,,Clear,260,2013-01-07 20:35:00
2:55 PM,35.6,26.6,70,29.85,10.0,West,15.0,-,0.00,,Clear,260,2013-01-07 20:55:00
3:15 PM,35.6,26.6,70,29.86,10.0,West,12.7,-,0.00,,Clear,260,2013-01-07 21:15:00
3:35 PM,33.8,28.4,81,29.86,10.0,WSW,13.8,-,0.00,,Clear,250,2013-01-07 21:35:00
3:55 PM,33.8,26.6,75,29.87,10.0,WSW,13.8,-,0.00,,Clear,240,2013-01-07 21:55:00
4:15 PM,32.0,26.6,80,29.88,10.0,WSW,12.7,-,0.00,,Clear,240,2013-01-07 22:15:00
4:35 PM,32.0,26.6,80,29.87,10.0,WSW,12.7,-,0.00,,Clear,240,2013-01-07 22:35:00
4:55 PM,30.2,24.8,80,29.88,10.0,WSW,12.7,-,0.00,,Clear,240,2013-01-07 22:55:00
5:15 PM,30.2,23.0,75,29.88,10.0,WSW,11.5,-,0.00,,Clear,250,2013-01-07 23:15:00
5:35 PM,28.4,23.0,80,29.88,10.0,West,9.2,-,0.00,,Clear,260,2013-01-07 23:35:00
5:55 PM,28.4,21.2,74,29.87,10.0,WSW,12.7,-,0.00,,Clear,250,2013-01-07 23:55:00
6:15 PM,26.6,21.2,80,29.88,10.0,WSW,12.7,-,0.00,,Clear,240,2013-01-08 00:15:00
6:35 PM,23.0,19.4,86,29.88,10.0,SW,12.7,-,0.00,,Clear,230,2013-01-08 00:35:00
6:55 PM,24.8,21.2,86,29.88,10.0,WSW,11.5,-,0.00,,Clear,240,2013-01-08 00:55:00
7:15 PM,23.0,19.4,86,29.89,10.0,West,4.6,-,0.00,,Clear,270,2013-01-08 01:15:00
7:35 PM,21.2,17.6,86,29.89,10.0,WSW,6.9,-,0.00,,Clear,250,2013-01-08 01:35:00
7:55 PM,17.6,14.0,86,29.90,10.0,Calm,Calm,-,0.00,,Clear,0,2013-01-08 01:55:00
8:15 PM,21.2,19.4,93,29.91,10.0,SW,3.5,-,0.00,,Clear,230,2013-01-08 02:15:00
8:35 PM,21.2,19.4,93,29.91,10.0,SW,8.1,-,0.00,,Clear,220,2013-01-08 02:35:00
8:55 PM,15.8,14.0,93,29.91,10.0,SW,9.2,-,0.00,,Clear,230,2013-01-08 02:55:00
9:15 PM,15.8,14.0,93,29.91,10.0,WSW,10.4,-,0.00,,Clear,250,2013-01-08 03:15:00
9:35 PM,17.6,14.0,86,29.91,10.0,SW,6.9,-,0.00,,Clear,220,2013-01-08 03:35:00
9:55 PM,14.0,10.4,86,29.91,10.0,SSW,5.8,-,0.00,,Clear,210,2013-01-08 03:55:00
10:15 PM,12.2,8.6,85,29.90,10.0,SSW,5.8,-,0.00,,Clear,210,2013-01-08 04:15:00
10:35 PM,12.2,10.4,92,29.90,10.0,SSW,8.1,-,0.00,,Clear,210,2013-01-08 04:35:00
10:55 PM,12.2,10.4,92,29.90,10.0,SW,8.1,-,0.00,,Clear,220,2013-01-08 04:55:00
11:15 PM,12.2,8.6,85,29.90,9.0,SSW,8.1,-,0.00,,Clear,210,2013-01-08 05:15:00
11:35 PM,10.4,6.8,85,29.89,10.0,SW,5.8,-,0.00,,Clear,220,2013-01-08 05:35:00
11:55 PM,10.4,5.0,79,29.89,1.2,SSW,6.9,-,0.00,,Scattered Clouds,210,2013-01-08 05:55:00